Location: Herksen
(52.4316°N, 6.1319°E)
Time: 07:33:06
(UTC+00:00)

Cosmos 1805 - Pass Details

Date: 15 May 2026
Orbit: 411 x 414 km, 82.5° (Epoch: 5 June)

Event Time Altitude Azimuth Distance (km) Brightness Sun altitude
Rises 20:29:46 0° 354° (N) 2,380 7.5 -8.4°
Reaches altitude 10° 20:31:54 10° 2° (N) 1,509 6.3 -8.6°
Maximum altitude 20:35:01 40° 74° (ENE) 627 3.4 -8.9°
Enters shadow 20:37:38 13° 143° (SE) 1,304 4.6 -9.2°
